Regional Weather Roundup
Issued by NWS Upton, NY

Current Version | Previous Version | Text Only | Print | Product List | Glossary On
Versions: 1 2 3 4 5 6 7 8 9 10 11 12 13 14 15 16 17 18 19 20 21 22 23 24 25 26 27 28 29 30 31 32 33 34 35 36 37 38 39 40 41 42 43 44 45 46 47 48 49 50
000
ASUS41 KOKX 081204
RWROKX

REGIONAL WEATHER ROUNDUP
NATIONAL WEATHER SERVICE NEW YORK NY
700 AM EST MON FEB 08 2016

NOTE: "FAIR" INDICATES FEW OR NO CLOUDS BELOW 12,000 FEET WITH NO
SIGNIFICANT WEATHER AND/OR OBSTRUCTIONS TO VISIBILITY.

NYZ071-072-176-178-NJZ106-104-081300-
NEW YORK CITY METRO AREA


CITY           SKY/WX    TMP DP  RH WIND       PRES   REMARKS
CENTRAL PARK   CLOUDY    38  26  62 NE13G21   29.79R WCI  30
LAGUARDIA APRT CLOUDY    39  28  64 NE20G28   29.77R WCI  29
KENNEDY INTL   CLOUDY    38  28  67 NE17      29.77R WCI  28
NEWARK/LIBERTY CLOUDY    38  28  67 NE17      29.77S WCI  28
BRNX BOT. GARD   N/A     37  27  65 NE7       29.78S WCI  32
TETERBORO      CLOUDY    38  25  59 NE9G21    29.77R WCI  31
$$

NYZ177-179-078>081-081300-
LONG ISLAND NEW YORK

CITY           SKY/WX    TMP DP  RH WIND       PRES   REMARKS
FARMINGDALE    CLOUDY    38  28  67 NE13G29   29.75S WCI  30
ISLIP          LGT SNOW  34  29  82 NE17      29.74R WCI  23
SHIRLEY        LGT SNOW  33  30  88 NE10G20   29.77R FOG     WCI  25
RIVERHEAD        N/A     32  28  86 E9        29.75R WCI  24
WESTHAMPTON    SNOW      33  30  88 NE25G37   29.77R VSB 1/2 WCI  20
EAST HAMPTON   LGT SNOW  32  31  95 NE15G26   29.75R VSB 1   WCI  22
MONTAUK POINT    N/A     32  31  96 NE21G36   29.75R WCI  20
$$

NYZ052-065-067-081300-
HUDSON VALLEY

CITY           SKY/WX    TMP DP  RH WIND       PRES   REMARKS
WHITE PLAINS   CLOUDY    35  26  69 NE10      29.76R WCI  27
NEWBURGH       CLOUDY    34  27  75 NE14      29.80R WCI  24
MONTGOMERY     CLOUDY    34  25  69 NE12      29.79R WCI  25
POUGHKEEPSIE   CLOUDY    37  25  61 NE8       29.81R WCI  31
ALBANY         CLOUDY    27  19  72 NE3       29.87R
$$

NJZ001-105-106-008-010-013-015-019>022-104-081300-
NEW JERSEY

CITY           SKY/WX    TMP DP  RH WIND       PRES   REMARKS
NEWARK/LIBERTY CLOUDY    38  28  67 NE17      29.77S WCI  28
TETERBORO      CLOUDY    38  25  59 NE9G21    29.77R WCI  31
CALDWELL       CLOUDY    37  25  61 NE9G18    29.78R WCI  30
MORRISTOWN     CLOUDY    36  28  75 NE7       29.79R WCI  30
SOMERVILLE     CLOUDY    37  26  64 N3        29.77R
SUSSEX         CLOUDY    34  24  67 NE7       29.78R WCI  28
ANDOVER          N/A     32  24  72 VRB5      29.78R WCI  27
TRENTON        CLOUDY    37  27  67 NE8       29.76R WCI  31
MILLVILLE      CLOUDY    38  28  67 N10G22    29.73R WCI  31
ATLANTIC CITY  CLOUDY    39  32  76 N10G23    29.72R WCI  32
WRIGHTSTOWN    CLOUDY    37  36  96 N14       29.72R WCI  28
TOMS RIVER     CLOUDY    37  28  70 NE14      29.73S WCI  29
BELMAR         CLOUDY    37  25  60 NE13G18   29.73R WCI  29
$$

PAZ047>061-062-071-081300-
EASTERN PENNSYLVANIA

CITY           SKY/WX    TMP DP  RH WIND       PRES   REMARKS
PHILADELPHIA   CLOUDY    38  26  62 N10       29.77R WCI  31
ALLENTOWN      CLOUDY    35  23  61 N5        29.80R WCI  31
SCRANTON       MOCLDY    32  22  66 CALM      29.78R
$$

CTZ002-004>006-009-010-012-RIZ004-006-007-MAZ004-011-015-081300-
SOUTHERN NEW ENGLAND
 IN CT

CITY           SKY/WX    TMP DP  RH WIND       PRES   REMARKS
BRADLEY INTL   CLOUDY    30  20  66 NE20      29.84R WCI  17
HARTFORD       MOCLDY    33  22  63 NE15G23   29.83R WCI  23
DANBURY        CLOUDY    34  23  64 NE12      29.80R WCI  25
WTRBRY/OXFORD  CLOUDY    32  18  55 E12G23    29.78R WCI  23
BRIDGEPORT     CLOUDY    37  26  64 NE22      29.79R WCI  26
MERIDEN        CLOUDY    34  22  61 NE15G25   29.81R WCI  24
NEW HAVEN      CLOUDY    35  25  66 NE14G22   29.78R WCI  26
CHESTER        MIX PCPN  32  27  80 NE12G25   29.78R WCI  23
GROTON         LGT SNOW  32  30  92 NE21      29.77R VSB 1   WCI  20
WILLIMANTIC    CLOUDY    31  20  63 NE16G30   29.81R WCI  20

 IN RI

CITY           SKY/WX    TMP DP  RH WIND       PRES   REMARKS
PROVIDENCE     CLOUDY    33  23  66 NE24G43   29.80S WCI  20
BLOCK ISLAND   CLOUDY    32  30  93 NE28G41   29.73R VSB 3/4 WCI  18
WESTERLY       LGT SNOW  33  26  75 N15G26    29.77R WCI  23

 IN MA

CITY           SKY/WX    TMP DP  RH WIND       PRES   REMARKS
BOSTON         CLOUDY    29  22  75 NE28G39   29.87F WCI  14
WORCESTER      CLOUDY    21   8  57 NE16G25   29.81S WCI   7
WESTFIELD      MOCLDY    29  14  53 NE9G23    29.86R WCI  20
PROVINCETOWN   LGT RAIN  34  26  72 NE30G43   29.79F WCI  20
NANTUCKET      LGT SNOW  35  30  82 NE31G47   29.64F WCI  22
$$

ANZ330-335-338-340-345-350-353-355-081300-
COASTAL MARINE OBSERVATIONS


STATION/POSITION TIME  SKY/WX   TEMP    WIND        PRES    VSBY  WAVE
                                AIR SEA DIR/SP/G                  HT/PER
                 (UTC)          (F)     (DEG/KT/KT) (MB)    (MI)  (FT/S)
NY HARB ENTRANCE 1050            40 44   30/ 21/ 27 1005.6          9/ 8
4S FIRE IS       NOT AVBL
20S FIRE ISLAND  1050            38 45   50/ 33/ 41 1004.2         13/ 9
GREAT SOUTH BAY  NOT AVBL
23SW MTP         1150            35 46   40/ 35/ 43 1004.2         17/10
HUDSON CANYON    1050            41 50               999.9         19/10
KINGS POINT      1100            38 39   80/ 13/ 20 1007.3
EXECUTION ROCKS  NOT AVBL
CENTRAL LI SOUND 1100            38      60/ 25/ 33   N/A           5/ 6
EASTERN LI SOUND 1100            37 42   50/ 23/ 33   N/A
ROBBINS REEF     1100            38      50/ 22/ 30 1006.8
$$


>>>>>>>>>>>>>>>>>>>>>>>>>>>> KEY <<<<<<<<<<<<<<<<<<<<<<<<<<<
>                                                          <
>     SKY/WX - SKY CONDITION/PRESENT WEATHER               <
>     TMP    - TEMPERATURE IN FAHRENHEIT                   <
>     DP     - DEWPOINT IN FAHRENHEIT                      <
>     RH     - RELATIVE HUMIDITY IN PERCENT                <
>     WIND   - DIRECTION AND SPEED IN MPH                  <
>     PRES   - MEAN SEA LEVEL PRESSURE IN INCHES OF HG     <
>     WCI    - WIND CHILL INDEX                            <
>     VSB    - VISIBILITY IN MILES                         <
>     HX     - HEAT INDEX                                  <
>     TC     - TEMPERATURE IN CELSIUS                      <
>     VRB    - VARIABLE WIND DIRECTION                     <
>                                                          <
>>>>>>>>>>>>>>>>>>>>>>>>>>>> KEY <<<<<<<<<<<<<<<<<<<<<<<<<<<






USA.gov is the U.S. government's official web portal to all federal, state and local government web resources and services.